Time,TemperatureF,DewpointF,PressureIn,WindDirection,WindDirectionDegrees,WindSpeedMPH,WindSpeedGustMPH,Humidity,HourlyPrecipIn,Conditions,Clouds,dailyrainin,SoftwareType,DateUTC
2013-05-05 00:00:00,71.6,65.1,29.73,WSW,255,2.0,3.0,80,0.00,RA,RA,0.00,WeatherDisplay:10.37,2013-05-05 04:00:00,
2013-05-05 00:05:00,71.6,65.5,29.73,West,261,2.0,5.0,81,0.00,RA,RA,0.00,WeatherDisplay:10.37,2013-05-05 04:05:00,
2013-05-05 00:10:00,71.4,65.3,29.73,WSW,254,3.0,5.0,81,0.00,BKN,BKN,0.00,WeatherDisplay:10.37,2013-05-05 04:10:00,
2013-05-05 00:15:00,71.4,65.6,29.72,WSW,253,2.0,5.0,82,0.00,BKN,BKN,0.00,WeatherDisplay:10.37,2013-05-05 04:15:00,
2013-05-05 00:20:00,71.1,65.4,29.72,WSW,249,2.0,4.0,82,0.00,BKN,BKN,0.00,WeatherDisplay:10.37,2013-05-05 04:20:00,
2013-05-05 00:25:00,71.1,65.6,29.72,WSW,244,2.0,8.0,83,0.00,BKN,BKN,0.00,WeatherDisplay:10.37,2013-05-05 04:25:00,
2013-05-05 00:30:00,70.9,65.5,29.72,WSW,240,3.0,5.0,83,0.00,BKN,BKN,0.00,WeatherDisplay:10.37,2013-05-05 04:30:00,
2013-05-05 00:40:00,70.7,65.6,29.72,WSW,240,5.0,6.0,84,0.00,BKN,BKN,0.00,WeatherDisplay:10.37,2013-05-05 04:40:00,
2013-05-05 00:45:00,70.7,65.6,29.72,WSW,238,3.0,7.0,84,0.00,BKN,BKN,0.00,WeatherDisplay:10.37,2013-05-05 04:45:00,
2013-05-05 00:50:00,70.5,65.8,29.72,WSW,237,3.0,5.0,85,0.00,BKN,BKN,0.00,WeatherDisplay:10.37,2013-05-05 04:50:00,
2013-05-05 00:55:00,70.5,65.8,29.72,WSW,237,3.0,7.0,85,0.00,BKN,BKN,0.00,WeatherDisplay:10.37,2013-05-05 04:55:00,
2013-05-05 01:00:00,70.4,66.0,29.72,SW,235,3.0,6.0,86,0.00,BKN,BKN,0.00,WeatherDisplay:10.37,2013-05-05 05:00:00,
2013-05-05 01:05:00,70.3,66.0,29.72,WSW,239,3.0,8.0,86,0.00,SCT,SCT,0.00,WeatherDisplay:10.37,2013-05-05 05:05:00,
2013-05-05 01:10:00,70.2,65.8,29.72,WSW,245,6.0,7.0,86,0.00,SCT,SCT,0.00,WeatherDisplay:10.37,2013-05-05 05:10:00,
2013-05-05 01:15:00,70.2,65.8,29.72,SW,236,3.0,7.0,86,0.00,SCT,SCT,0.00,WeatherDisplay:10.37,2013-05-05 05:15:00,
2013-05-05 01:20:00,70.1,65.7,29.71,SW,236,5.0,7.0,86,0.00,SCT,SCT,0.00,WeatherDisplay:10.37,2013-05-05 05:20:00,
2013-05-05 01:25:00,69.9,65.6,29.71,WSW,244,5.0,6.0,86,0.00,SCT,SCT,0.00,WeatherDisplay:10.37,2013-05-05 05:25:00,
2013-05-05 01:30:00,69.8,65.8,29.71,WSW,250,5.0,7.0,87,0.00,SCT,SCT,0.00,WeatherDisplay:10.37,2013-05-05 05:30:00,
2013-05-05 01:35:00,69.8,65.8,29.71,WSW,249,6.0,7.0,87,0.00,SCT,SCT,0.00,WeatherDisplay:10.37,2013-05-05 05:35:00,
2013-05-05 01:40:00,69.6,65.6,29.71,WSW,245,3.0,7.0,87,0.00,SCT,SCT,0.00,WeatherDisplay:10.37,2013-05-05 05:40:00,
2013-05-05 01:45:00,69.4,65.4,29.71,WSW,251,3.0,8.0,87,0.00,SCT,SCT,0.00,WeatherDisplay:10.37,2013-05-05 05:45:00,
2013-05-05 01:50:00,69.4,65.7,29.70,WSW,258,5.0,7.0,88,0.00,SCT,SCT,0.00,WeatherDisplay:10.37,2013-05-05 05:50:00,
2013-05-05 01:55:00,69.3,65.6,29.70,West,259,6.0,9.0,88,0.00,SCT,SCT,0.00,WeatherDisplay:10.37,2013-05-05 05:55:00,
2013-05-05 02:00:00,69.3,65.6,29.70,WSW,254,5.0,7.0,88,0.00,SCT,SCT,0.00,WeatherDisplay:10.37,2013-05-05 06:00:00,
2013-05-05 02:05:00,69.1,65.4,29.70,WSW,255,3.0,7.0,88,0.00,FEW,FEW,0.00,WeatherDisplay:10.37,2013-05-05 06:05:00,
2013-05-05 02:10:00,69.1,65.4,29.70,West,260,2.0,8.0,88,0.00,FEW,FEW,0.00,WeatherDisplay:10.37,2013-05-05 06:10:00,
2013-05-05 02:20:00,69.1,65.4,29.70,West,260,6.0,8.0,88,0.00,SCT,SCT,0.00,WeatherDisplay:10.37,2013-05-05 06:20:00,
2013-05-05 02:25:00,69.3,65.6,29.69,West,263,6.0,8.0,88,0.00,SCT,SCT,0.00,WeatherDisplay:10.37,2013-05-05 06:25:00,
2013-05-05 02:30:00,69.3,65.3,29.70,West,276,3.0,7.0,87,0.00,SCT,SCT,0.00,WeatherDisplay:10.37,2013-05-05 06:30:00,
2013-05-05 02:35:00,69.3,65.2,29.70,West,271,3.0,7.0,87,0.00,SCT,SCT,0.00,WeatherDisplay:10.37,2013-05-05 06:35:00,
2013-05-05 02:40:00,69.4,65.1,29.70,West,264,7.0,9.0,86,0.00,SCT,SCT,0.00,WeatherDisplay:10.37,2013-05-05 06:40:00,
2013-05-05 02:45:00,69.6,65.2,29.70,West,272,2.0,6.0,86,0.00,SCT,SCT,0.00,WeatherDisplay:10.37,2013-05-05 06:45:00,
2013-05-05 02:50:00,69.6,64.9,29.70,West,270,3.0,10.0,85,0.00,SCT,SCT,0.00,WeatherDisplay:10.37,2013-05-05 06:50:00,
2013-05-05 02:55:00,69.7,64.6,29.70,West,264,6.0,7.0,84,0.00,SCT,SCT,0.00,WeatherDisplay:10.37,2013-05-05 06:55:00,
2013-05-05 03:00:00,69.7,64.7,29.69,West,259,3.0,7.0,84,0.00,SCT,SCT,0.00,WeatherDisplay:10.37,2013-05-05 07:00:00,
2013-05-05 03:05:00,69.7,64.6,29.70,West,262,1.0,6.0,84,0.00,SCT,SCT,0.00,WeatherDisplay:10.37,2013-05-05 07:05:00,
2013-05-05 03:15:00,69.5,64.4,29.70,WSW,258,0.0,5.0,84,0.00,SCT,SCT,0.00,WeatherDisplay:10.37,2013-05-05 07:15:00,
2013-05-05 03:20:00,69.4,64.7,29.70,West,271,5.0,5.0,85,0.00,SCT,SCT,0.00,WeatherDisplay:10.37,2013-05-05 07:20:00,
2013-05-05 03:25:00,69.4,65.1,29.70,West,268,3.0,5.0,86,0.00,SCT,SCT,0.00,WeatherDisplay:10.37,2013-05-05 07:25:00,
2013-05-05 03:30:00,69.6,64.8,29.70,West,260,3.0,6.0,85,0.00,SCT,SCT,0.00,WeatherDisplay:10.37,2013-05-05 07:30:00,
2013-05-05 03:35:00,69.6,64.9,29.70,West,266,3.0,7.0,85,0.00,SCT,SCT,0.00,WeatherDisplay:10.37,2013-05-05 07:35:00,
2013-05-05 03:40:00,69.6,64.9,29.70,West,272,3.0,6.0,85,0.00,SCT,SCT,0.00,WeatherDisplay:10.37,2013-05-05 07:40:00,
2013-05-05 03:45:00,69.6,64.9,29.70,West,267,7.0,9.0,85,0.00,SCT,SCT,0.00,WeatherDisplay:10.37,2013-05-05 07:45:00,
2013-05-05 03:55:00,69.1,64.1,29.70,WNW,282,6.0,12.0,84,0.00,SCT,SCT,0.00,WeatherDisplay:10.37,2013-05-05 07:55:00,
2013-05-05 04:00:00,68.9,63.5,29.70,WNW,282,8.0,12.0,83,0.00,SCT,SCT,0.00,WeatherDisplay:10.37,2013-05-05 08:00:00,
2013-05-05 04:05:00,68.7,63.7,29.70,West,274,7.0,10.0,84,0.00,OVC,OVC,0.00,WeatherDisplay:10.37,2013-05-05 08:05:00,
2013-05-05 04:10:00,68.5,63.5,29.70,West,281,8.0,10.0,84,0.00,OVC,OVC,0.00,WeatherDisplay:10.37,2013-05-05 08:10:00,
2013-05-05 04:15:00,68.4,63.3,29.70,West,276,8.0,12.0,84,0.00,OVC,OVC,0.00,WeatherDisplay:10.37,2013-05-05 08:15:00,
2013-05-05 04:20:00,68.2,63.2,29.70,West,266,8.0,12.0,84,0.00,OVC,OVC,0.00,WeatherDisplay:10.37,2013-05-05 08:20:00,
2013-05-05 04:25:00,68.0,63.0,29.70,West,274,5.0,9.0,84,0.00,OVC,OVC,0.00,WeatherDisplay:10.37,2013-05-05 08:25:00,
2013-05-05 04:30:00,67.6,62.6,29.70,West,267,9.0,14.0,84,0.00,OVC,OVC,0.00,WeatherDisplay:10.37,2013-05-05 08:30:00,
2013-05-05 04:35:00,67.6,62.6,29.70,West,269,7.0,12.0,84,0.00,OVC,OVC,0.00,WeatherDisplay:10.37,2013-05-05 08:35:00,
2013-05-05 04:40:00,67.5,62.4,29.70,West,270,7.0,8.0,84,0.00,OVC,OVC,0.00,WeatherDisplay:10.37,2013-05-05 08:40:00,
2013-05-05 04:45:00,67.5,62.5,29.70,West,274,5.0,13.0,84,0.00,OVC,OVC,0.00,WeatherDisplay:10.37,2013-05-05 08:45:00,
2013-05-05 04:50:00,67.5,62.5,29.70,West,274,7.0,10.0,84,0.00,OVC,OVC,0.00,WeatherDisplay:10.37,2013-05-05 08:50:00,
2013-05-05 04:55:00,67.3,62.3,29.70,West,275,6.0,13.0,84,0.00,OVC,OVC,0.00,WeatherDisplay:10.37,2013-05-05 08:55:00,
2013-05-05 05:00:00,67.3,62.6,29.70,West,278,5.0,13.0,85,0.00,OVC,OVC,0.00,WeatherDisplay:10.37,2013-05-05 09:00:00,
2013-05-05 05:05:00,67.3,62.6,29.71,West,281,10.0,13.0,85,0.00,OVC,OVC,0.00,WeatherDisplay:10.37,2013-05-05 09:05:00,
2013-05-05 05:10:00,67.1,62.8,29.71,West,279,6.0,10.0,86,0.00,OVC,OVC,0.00,WeatherDisplay:10.37,2013-05-05 09:10:00,
2013-05-05 05:20:00,66.8,62.5,29.71,West,279,7.0,14.0,86,0.00,OVC,OVC,0.00,WeatherDisplay:10.37,2013-05-05 09:20:00,
2013-05-05 05:30:00,66.6,62.6,29.72,WNW,297,7.0,12.0,87,0.00,OVC,OVC,0.00,WeatherDisplay:10.37,2013-05-05 09:30:00,
2013-05-05 05:35:00,66.6,62.6,29.72,WNW,284,7.0,9.0,87,0.00,OVC,OVC,0.00,WeatherDisplay:10.37,2013-05-05 09:35:00,
2013-05-05 05:40:00,66.4,62.7,29.72,West,275,7.0,13.0,88,0.00,OVC,OVC,0.00,WeatherDisplay:10.37,2013-05-05 09:40:00,
2013-05-05 05:45:00,66.2,62.5,29.72,West,271,5.0,9.0,88,0.00,OVC,OVC,0.00,WeatherDisplay:10.37,2013-05-05 09:45:00,
2013-05-05 05:50:00,65.9,62.6,29.72,West,272,6.0,8.0,89,0.00,OVC,OVC,0.00,WeatherDisplay:10.37,2013-05-05 09:50:00,
2013-05-05 05:55:00,65.5,62.1,29.73,West,280,9.0,12.0,89,0.01,RA,RA,0.01,WeatherDisplay:10.37,2013-05-05 09:55:00,
2013-05-05 06:00:00,65.1,62.1,29.73,WNW,291,6.0,10.0,90,0.01,RA,RA,0.01,WeatherDisplay:10.37,2013-05-05 10:00:00,
2013-05-05 06:05:00,64.8,61.8,29.73,WNW,299,6.0,10.0,90,0.01,-DZ,-DZ,0.01,WeatherDisplay:10.37,2013-05-05 10:05:00,
2013-05-05 06:10:00,64.4,61.4,29.73,NW,306,7.0,15.0,90,0.01,-DZ,-DZ,0.01,WeatherDisplay:10.37,2013-05-05 10:10:00,
2013-05-05 06:15:00,63.8,60.8,29.74,NW,307,6.0,12.0,90,0.01,-DZ,-DZ,0.01,WeatherDisplay:10.37,2013-05-05 10:15:00,
2013-05-05 06:20:00,63.6,60.7,29.74,WNW,298,7.0,11.0,90,0.01,-DZ,-DZ,0.01,WeatherDisplay:10.37,2013-05-05 10:20:00,
2013-05-05 06:25:00,63.3,60.3,29.74,WNW,301,7.0,13.0,90,0.01,-DZ,-DZ,0.01,WeatherDisplay:10.37,2013-05-05 10:25:00,
2013-05-05 06:30:00,63.1,60.5,29.75,NW,307,6.0,10.0,91,0.01,-DZ,-DZ,0.01,WeatherDisplay:10.37,2013-05-05 10:30:00,
2013-05-05 06:35:00,63.0,60.3,29.75,WNW,300,9.0,14.0,91,0.01,-DZ,-DZ,0.01,WeatherDisplay:10.37,2013-05-05 10:35:00,
2013-05-05 06:40:00,62.8,59.8,29.75,NW,308,6.0,14.0,90,0.01,-DZ,-DZ,0.01,WeatherDisplay:10.37,2013-05-05 10:40:00,
2013-05-05 06:50:00,63.0,59.7,29.76,WNW,289,6.0,12.0,89,0.01,-DZ,-DZ,0.01,WeatherDisplay:10.37,2013-05-05 10:50:00,
2013-05-05 06:55:00,63.1,59.2,29.77,WNW,294,8.0,14.0,87,0.00,-DZ,-DZ,0.01,WeatherDisplay:10.37,2013-05-05 10:55:00,
2013-05-05 07:00:00,63.2,59.3,29.77,NW,306,5.0,9.0,87,0.00,-DZ,-DZ,0.01,WeatherDisplay:10.37,2013-05-05 11:00:00,
2013-05-05 07:05:00,63.0,58.4,29.77,WNW,302,12.0,16.0,85,0.00,OVC,OVC,0.01,WeatherDisplay:10.37,2013-05-05 11:05:00,
2013-05-05 07:10:00,63.0,57.4,29.78,WNW,303,9.0,12.0,82,0.00,OVC,OVC,0.01,WeatherDisplay:10.37,2013-05-05 11:10:00,
2013-05-05 07:15:00,62.3,53.9,29.79,NW,315,8.0,16.0,74,0.00,OVC,OVC,0.01,WeatherDisplay:10.37,2013-05-05 11:15:00,
2013-05-05 07:20:00,62.0,52.9,29.79,NW,317,7.0,12.0,72,0.00,OVC,OVC,0.01,WeatherDisplay:10.37,2013-05-05 11:20:00,
2013-05-05 07:25:00,62.0,51.3,29.79,NW,308,15.0,18.0,68,0.00,OVC,OVC,0.01,WeatherDisplay:10.37,2013-05-05 11:25:00,
2013-05-05 07:30:00,61.9,50.4,29.79,NW,304,6.0,16.0,66,0.00,OVC,OVC,0.01,WeatherDisplay:10.37,2013-05-05 11:30:00,
2013-05-05 07:35:00,61.9,48.7,29.80,WNW,293,8.0,16.0,62,0.00,OVC,OVC,0.01,WeatherDisplay:10.37,2013-05-05 11:35:00,
2013-05-05 07:40:00,61.7,49.0,29.80,WNW,294,6.0,9.0,63,0.00,OVC,OVC,0.01,WeatherDisplay:10.37,2013-05-05 11:40:00,
2013-05-05 07:45:00,62.2,48.6,29.80,WNW,300,10.0,14.0,61,0.00,OVC,OVC,0.01,WeatherDisplay:10.37,2013-05-05 11:45:00,
2013-05-05 07:50:00,62.6,49.0,29.81,WNW,294,8.0,12.0,61,0.00,OVC,OVC,0.01,WeatherDisplay:10.37,2013-05-05 11:50:00,
2013-05-05 07:55:00,63.0,49.7,29.81,WNW,298,3.0,10.0,62,0.00,OVC,OVC,0.01,WeatherDisplay:10.37,2013-05-05 11:55:00,
2013-05-05 08:00:00,63.1,49.9,29.81,NW,304,5.0,9.0,62,0.00,OVC,OVC,0.01,WeatherDisplay:10.37,2013-05-05 12:00:00,
2013-05-05 08:05:00,63.3,50.1,29.81,WNW,294,3.0,13.0,62,0.00,BKN,BKN,0.01,WeatherDisplay:10.37,2013-05-05 12:05:00,
2013-05-05 08:10:00,63.5,50.2,29.81,WNW,296,7.0,10.0,62,0.00,BKN,BKN,0.01,WeatherDisplay:10.37,2013-05-05 12:10:00,
2013-05-05 08:15:00,63.3,50.1,29.82,WNW,298,6.0,19.0,62,0.00,BKN,BKN,0.01,WeatherDisplay:10.37,2013-05-05 12:15:00,
2013-05-05 08:20:00,63.3,50.1,29.82,NW,309,9.0,10.0,62,0.00,SCT,SCT,0.01,WeatherDisplay:10.37,2013-05-05 12:20:00,
2013-05-05 08:25:00,63.4,50.1,29.82,NW,305,9.0,13.0,62,0.00,SCT,SCT,0.01,WeatherDisplay:10.37,2013-05-05 12:25:00,
2013-05-05 08:35:00,63.6,50.4,29.82,NW,307,10.0,13.0,62,0.00,SCT,SCT,0.01,WeatherDisplay:10.37,2013-05-05 12:35:00,
2013-05-05 08:40:00,63.6,50.3,29.82,NW,310,7.0,14.0,62,0.00,SCT,SCT,0.01,WeatherDisplay:10.37,2013-05-05 12:40:00,
2013-05-05 08:45:00,63.7,50.0,29.82,NW,315,5.0,15.0,61,0.00,SCT,SCT,0.01,WeatherDisplay:10.37,2013-05-05 12:45:00,
2013-05-05 08:50:00,63.9,50.2,29.82,NW,312,7.0,10.0,61,0.00,SCT,SCT,0.01,WeatherDisplay:10.37,2013-05-05 12:50:00,
2013-05-05 09:00:00,64.4,49.3,29.82,NW,305,8.0,13.0,58,0.00,SCT,SCT,0.01,WeatherDisplay:10.37,2013-05-05 13:00:00,
2013-05-05 09:05:00,64.1,47.1,29.82,NW,309,13.0,16.0,54,0.00,SCT,SCT,0.01,WeatherDisplay:10.37,2013-05-05 13:05:00,
2013-05-05 09:10:00,63.7,47.2,29.82,NW,307,8.0,17.0,55,0.00,SCT,SCT,0.01,WeatherDisplay:10.37,2013-05-05 13:10:00,
2013-05-05 09:15:00,64.3,48.3,29.83,WNW,301,7.0,15.0,56,0.00,SCT,SCT,0.01,WeatherDisplay:10.37,2013-05-05 13:15:00,
2013-05-05 09:20:00,64.4,47.4,29.83,WNW,297,8.0,12.0,54,0.00,SCT,SCT,0.01,WeatherDisplay:10.37,2013-05-05 13:20:00,
2013-05-05 09:25:00,64.4,46.9,29.83,WNW,301,13.0,16.0,53,0.00,SCT,SCT,0.01,WeatherDisplay:10.37,2013-05-05 13:25:00,
2013-05-05 09:35:00,64.4,46.4,29.83,NW,307,9.0,15.0,52,0.00,SCT,SCT,0.01,WeatherDisplay:10.37,2013-05-05 13:35:00,
2013-05-05 09:40:00,64.8,46.7,29.83,WNW,297,6.0,12.0,52,0.00,SCT,SCT,0.01,WeatherDisplay:10.37,2013-05-05 13:40:00,
2013-05-05 09:45:00,64.9,45.8,29.84,WNW,288,9.0,13.0,50,0.00,SCT,SCT,0.01,WeatherDisplay:10.37,2013-05-05 13:45:00,
2013-05-05 09:50:00,65.5,45.3,29.84,WNW,292,12.0,14.0,48,0.00,SCT,SCT,0.01,WeatherDisplay:10.37,2013-05-05 13:50:00,
2013-05-05 09:55:00,65.3,44.5,29.84,WNW,289,8.0,14.0,47,0.00,SCT,SCT,0.01,WeatherDisplay:10.37,2013-05-05 13:55:00,
2013-05-05 10:00:00,65.3,45.1,29.84,WNW,292,6.0,14.0,48,0.00,SCT,SCT,0.01,WeatherDisplay:10.37,2013-05-05 14:00:00,
2013-05-05 10:05:00,65.5,45.3,29.83,WNW,297,9.0,14.0,48,0.00,BKN,BKN,0.01,WeatherDisplay:10.37,2013-05-05 14:05:00,
2013-05-05 10:10:00,65.5,45.3,29.83,NW,306,5.0,15.0,48,0.00,BKN,BKN,0.01,WeatherDisplay:10.37,2013-05-05 14:10:00,
2013-05-05 10:15:00,65.8,43.9,29.83,NW,314,7.0,15.0,45,0.00,BKN,BKN,0.01,WeatherDisplay:10.37,2013-05-05 14:15:00,
2013-05-05 10:20:00,66.2,44.2,29.83,NW,320,8.0,12.0,45,0.00,BKN,BKN,0.01,WeatherDisplay:10.37,2013-05-05 14:20:00,
2013-05-05 10:25:00,66.6,44.6,29.83,NW,308,6.0,13.0,45,0.00,BKN,BKN,0.01,WeatherDisplay:10.37,2013-05-05 14:25:00,
2013-05-05 10:30:00,67.1,43.8,29.84,WNW,296,12.0,12.0,43,0.00,BKN,BKN,0.01,WeatherDisplay:10.37,2013-05-05 14:30:00,
2013-05-05 10:35:00,66.6,44.0,29.84,WNW,300,9.0,14.0,44,0.00,BKN,BKN,0.01,WeatherDisplay:10.37,2013-05-05 14:35:00,
2013-05-05 10:40:00,66.6,44.0,29.84,NW,308,9.0,13.0,44,0.00,BKN,BKN,0.01,WeatherDisplay:10.37,2013-05-05 14:40:00,
2013-05-05 10:45:00,67.5,45.4,29.84,NW,309,5.0,12.0,45,0.00,BKN,BKN,0.01,WeatherDisplay:10.37,2013-05-05 14:45:00,
2013-05-05 10:50:00,67.3,44.6,29.83,WNW,285,7.0,14.0,44,0.00,BKN,BKN,0.01,WeatherDisplay:10.37,2013-05-05 14:50:00,
2013-05-05 10:55:00,67.6,44.9,29.83,WNW,287,10.0,13.0,44,0.00,BKN,BKN,0.01,WeatherDisplay:10.37,2013-05-05 14:55:00,
2013-05-05 11:00:00,67.8,44.5,29.83,WNW,291,10.0,14.0,43,0.00,BKN,BKN,0.01,WeatherDisplay:10.37,2013-05-05 15:00:00,
2013-05-05 11:05:00,67.9,43.3,29.83,WNW,295,10.0,14.0,41,0.00,BKN,BKN,0.01,WeatherDisplay:10.37,2013-05-05 15:05:00,
2013-05-05 11:10:00,67.9,44.0,29.83,WNW,288,9.0,14.0,42,0.00,BKN,BKN,0.01,WeatherDisplay:10.37,2013-05-05 15:10:00,
2013-05-05 11:15:00,68.5,45.1,29.83,WNW,284,6.0,12.0,43,0.00,BKN,BKN,0.01,WeatherDisplay:10.37,2013-05-05 15:15:00,
2013-05-05 11:20:00,68.4,45.0,29.83,WNW,295,10.0,16.0,43,0.00,BKN,BKN,0.01,WeatherDisplay:10.37,2013-05-05 15:20:00,
2013-05-05 11:25:00,68.7,44.7,29.83,WNW,294,8.0,13.0,42,0.00,BKN,BKN,0.01,WeatherDisplay:10.37,2013-05-05 15:25:00,
2013-05-05 11:30:00,69.1,43.7,29.84,NW,305,8.0,13.0,40,0.00,BKN,BKN,0.01,WeatherDisplay:10.37,2013-05-05 15:30:00,
2013-05-05 11:40:00,68.9,42.9,29.84,WNW,290,9.0,13.0,39,0.00,BKN,BKN,0.01,WeatherDisplay:10.37,2013-05-05 15:40:00,
2013-05-05 11:45:00,69.6,43.6,29.84,WNW,299,7.0,12.0,39,0.00,BKN,BKN,0.01,WeatherDisplay:10.37,2013-05-05 15:45:00,
2013-05-05 11:55:00,69.5,43.5,29.84,WNW,290,10.0,16.0,39,0.00,BKN,BKN,0.01,WeatherDisplay:10.37,2013-05-05 15:55:00,
2013-05-05 12:00:00,69.5,42.8,29.84,WNW,297,13.0,16.0,38,0.00,BKN,BKN,0.01,WeatherDisplay:10.37,2013-05-05 16:00:00,
2013-05-05 12:05:00,69.6,44.2,29.84,WNW,297,7.0,15.0,40,0.00,BKN,BKN,0.01,WeatherDisplay:10.37,2013-05-05 16:05:00,
2013-05-05 12:10:00,70.1,43.3,29.84,WNW,299,13.0,16.0,38,0.00,BKN,BKN,0.01,WeatherDisplay:10.37,2013-05-05 16:10:00,
2013-05-05 12:15:00,70.7,44.6,29.84,NW,313,9.0,13.0,39,0.00,BKN,BKN,0.01,WeatherDisplay:10.37,2013-05-05 16:15:00,
2013-05-05 12:20:00,70.7,43.1,29.84,NW,304,8.0,14.0,37,0.00,BKN,BKN,0.01,WeatherDisplay:10.37,2013-05-05 16:20:00,
2013-05-05 12:25:00,70.9,44.7,29.84,NW,309,6.0,12.0,39,0.00,BKN,BKN,0.01,WeatherDisplay:10.37,2013-05-05 16:25:00,
2013-05-05 12:30:00,70.9,44.7,29.84,NW,306,5.0,16.0,39,0.00,BKN,BKN,0.01,WeatherDisplay:10.37,2013-05-05 16:30:00,
2013-05-05 12:35:00,70.9,44.0,29.84,WNW,303,9.0,14.0,38,0.00,BKN,BKN,0.01,WeatherDisplay:10.37,2013-05-05 16:35:00,
2013-05-05 12:40:00,71.1,44.8,29.83,WNW,288,6.0,12.0,39,0.00,BKN,BKN,0.01,WeatherDisplay:10.37,2013-05-05 16:40:00,
2013-05-05 12:45:00,71.7,44.7,29.83,WNW,298,8.0,14.0,38,0.00,BKN,BKN,0.01,WeatherDisplay:10.37,2013-05-05 16:45:00,
2013-05-05 12:50:00,71.7,44.7,29.83,NW,321,8.0,10.0,38,0.00,BKN,BKN,0.01,WeatherDisplay:10.37,2013-05-05 16:50:00,
2013-05-05 12:55:00,72.0,45.0,29.83,NNW,327,8.0,14.0,38,0.00,BKN,BKN,0.01,WeatherDisplay:10.37,2013-05-05 16:55:00,
2013-05-05 13:00:00,71.8,44.8,29.83,NW,326,7.0,13.0,38,0.00,BKN,BKN,0.01,WeatherDisplay:10.37,2013-05-05 17:00:00,
2013-05-05 13:10:00,72.1,45.1,29.83,NW,319,5.0,13.0,38,0.00,BKN,BKN,0.01,WeatherDisplay:10.37,2013-05-05 17:10:00,
2013-05-05 13:20:00,73.0,46.6,29.82,WNW,292,7.0,13.0,39,0.00,BKN,BKN,0.01,WeatherDisplay:10.37,2013-05-05 17:20:00,
2013-05-05 13:25:00,73.1,45.9,29.82,WNW,285,8.0,13.0,38,0.00,BKN,BKN,0.01,WeatherDisplay:10.37,2013-05-05 17:25:00,
2013-05-05 13:30:00,73.0,45.1,29.82,WNW,288,9.0,14.0,37,0.00,BKN,BKN,0.01,WeatherDisplay:10.37,2013-05-05 17:30:00,
2013-05-05 13:35:00,72.5,45.4,29.82,WNW,302,6.0,14.0,38,0.00,BKN,BKN,0.01,WeatherDisplay:10.37,2013-05-05 17:35:00,
2013-05-05 13:40:00,73.0,45.9,29.82,WNW,296,10.0,13.0,38,0.00,BKN,BKN,0.01,WeatherDisplay:10.37,2013-05-05 17:40:00,
2013-05-05 13:45:00,73.1,46.7,29.82,West,275,5.0,16.0,39,0.00,BKN,BKN,0.01,WeatherDisplay:10.37,2013-05-05 17:45:00,
2013-05-05 13:50:00,73.8,46.6,29.82,WNW,282,9.0,13.0,38,0.00,BKN,BKN,0.01,WeatherDisplay:10.37,2013-05-05 17:50:00,
2013-05-05 13:55:00,73.7,47.2,29.82,WNW,294,6.0,13.0,39,0.00,BKN,BKN,0.01,WeatherDisplay:10.37,2013-05-05 17:55:00,
2013-05-05 14:00:00,73.9,45.9,29.82,WNW,290,9.0,13.0,37,0.00,BKN,BKN,0.01,WeatherDisplay:10.37,2013-05-05 18:00:00,
2013-05-05 14:05:00,73.8,45.9,29.82,WNW,286,7.0,11.0,37,0.00,BKN,BKN,0.01,WeatherDisplay:10.37,2013-05-05 18:05:00,
2013-05-05 14:10:00,73.8,46.6,29.82,WNW,293,8.0,13.0,38,0.00,BKN,BKN,0.01,WeatherDisplay:10.37,2013-05-05 18:10:00,
2013-05-05 14:15:00,74.0,46.1,29.82,WNW,294,8.0,11.0,37,0.00,BKN,BKN,0.01,WeatherDisplay:10.37,2013-05-05 18:15:00,
2013-05-05 14:20:00,74.2,45.5,29.82,NW,310,8.0,11.0,36,0.00,BKN,BKN,0.01,WeatherDisplay:10.37,2013-05-05 18:20:00,
2013-05-05 14:25:00,75.0,45.5,29.82,NNW,327,5.0,12.0,35,0.00,BKN,BKN,0.01,WeatherDisplay:10.37,2013-05-05 18:25:00,
2013-05-05 14:30:00,74.3,44.9,29.82,WNW,302,9.0,14.0,35,0.00,BKN,BKN,0.01,WeatherDisplay:10.37,2013-05-05 18:30:00,
2013-05-05 14:35:00,74.5,45.8,29.82,WNW,298,5.0,12.0,36,0.00,BKN,BKN,0.01,WeatherDisplay:10.37,2013-05-05 18:35:00,
2013-05-05 14:40:00,74.7,45.9,29.82,NW,314,8.0,13.0,36,0.00,BKN,BKN,0.01,WeatherDisplay:10.37,2013-05-05 18:40:00,
2013-05-05 14:45:00,74.8,45.3,29.82,NW,310,2.0,15.0,35,0.00,BKN,BKN,0.01,WeatherDisplay:10.37,2013-05-05 18:45:00,
2013-05-05 14:50:00,75.2,45.7,29.81,NW,316,3.0,10.0,35,0.00,BKN,BKN,0.01,WeatherDisplay:10.37,2013-05-05 18:50:00,
2013-05-05 14:55:00,76.1,46.4,29.81,NW,311,9.0,10.0,35,0.00,BKN,BKN,0.01,WeatherDisplay:10.37,2013-05-05 18:55:00,
2013-05-05 15:00:00,75.2,47.9,29.81,WNW,297,6.0,15.0,38,0.00,BKN,BKN,0.01,WeatherDisplay:10.37,2013-05-05 19:00:00,
2013-05-05 15:05:00,75.5,48.1,29.81,WNW,289,5.0,10.0,38,0.00,SCT,SCT,0.01,WeatherDisplay:10.37,2013-05-05 19:05:00,
2013-05-05 15:10:00,75.2,47.2,29.81,WNW,301,9.0,14.0,37,0.00,SCT,SCT,0.01,WeatherDisplay:10.37,2013-05-05 19:10:00,
2013-05-05 15:15:00,75.4,48.0,29.81,WNW,295,7.0,13.0,38,0.00,SCT,SCT,0.01,WeatherDisplay:10.37,2013-05-05 19:15:00,
2013-05-05 15:20:00,75.6,47.5,29.81,West,273,6.0,12.0,37,0.00,SCT,SCT,0.01,WeatherDisplay:10.37,2013-05-05 19:20:00,
2013-05-05 15:25:00,75.6,46.0,29.81,West,271,5.0,12.0,35,0.00,SCT,SCT,0.01,WeatherDisplay:10.37,2013-05-05 19:25:00,
2013-05-05 15:30:00,75.8,45.4,29.80,West,271,8.0,12.0,34,0.00,SCT,SCT,0.01,WeatherDisplay:10.37,2013-05-05 19:30:00,
2013-05-05 15:35:00,76.3,45.0,29.80,West,268,10.0,12.0,33,0.00,SCT,SCT,0.01,WeatherDisplay:10.37,2013-05-05 19:35:00,
2013-05-05 15:40:00,76.0,45.6,29.80,West,261,5.0,12.0,34,0.00,SCT,SCT,0.01,WeatherDisplay:10.37,2013-05-05 19:40:00,
2013-05-05 15:45:00,76.1,44.9,29.80,WSW,251,10.0,12.0,33,0.00,SCT,SCT,0.01,WeatherDisplay:10.37,2013-05-05 19:45:00,
2013-05-05 15:50:00,75.6,44.5,29.80,West,278,9.0,13.0,33,0.00,SCT,SCT,0.01,WeatherDisplay:10.37,2013-05-05 19:50:00,
2013-05-05 15:55:00,75.7,44.6,29.80,WNW,292,10.0,14.0,33,0.00,SCT,SCT,0.01,WeatherDisplay:10.37,2013-05-05 19:55:00,
2013-05-05 16:00:00,76.2,44.2,29.80,WNW,297,8.0,12.0,32,0.00,SCT,SCT,0.01,WeatherDisplay:10.37,2013-05-05 20:00:00,
2013-05-05 16:05:00,76.5,45.2,29.80,NW,304,9.0,12.0,33,0.00,FEW,FEW,0.01,WeatherDisplay:10.37,2013-05-05 20:05:00,
2013-05-05 16:10:00,76.7,44.7,29.79,WNW,293,8.0,12.0,32,0.00,FEW,FEW,0.01,WeatherDisplay:10.37,2013-05-05 20:10:00,
2013-05-05 16:15:00,77.0,44.0,29.79,WNW,298,7.0,9.0,31,0.00,FEW,FEW,0.01,WeatherDisplay:10.37,2013-05-05 20:15:00,
2013-05-05 16:20:00,76.5,43.6,29.79,WNW,300,9.0,12.0,31,0.00,FEW,FEW,0.01,WeatherDisplay:10.37,2013-05-05 20:20:00,
2013-05-05 16:25:00,76.2,45.0,29.79,WNW,300,8.0,15.0,33,0.00,FEW,FEW,0.01,WeatherDisplay:10.37,2013-05-05 20:25:00,
2013-05-05 16:30:00,76.3,45.1,29.79,WNW,302,9.0,12.0,33,0.00,FEW,FEW,0.01,WeatherDisplay:10.37,2013-05-05 20:30:00,
2013-05-05 16:35:00,77.0,45.7,29.79,WNW,295,5.0,9.0,33,0.00,FEW,FEW,0.01,WeatherDisplay:10.37,2013-05-05 20:35:00,
2013-05-05 16:40:00,77.6,47.0,29.79,WNW,296,5.0,8.0,34,0.00,FEW,FEW,0.01,WeatherDisplay:10.37,2013-05-05 20:40:00,
2013-05-05 16:45:00,77.7,46.3,29.79,WNW,287,5.0,10.0,33,0.00,FEW,FEW,0.01,WeatherDisplay:10.37,2013-05-05 20:45:00,
2013-05-05 16:50:00,77.7,46.3,29.79,West,269,7.0,9.0,33,0.00,FEW,FEW,0.01,WeatherDisplay:10.37,2013-05-05 20:50:00,
2013-05-05 16:55:00,77.5,45.3,29.79,West,270,9.0,13.0,32,0.00,FEW,FEW,0.01,WeatherDisplay:10.37,2013-05-05 20:55:00,
2013-05-05 17:00:00,76.9,44.8,29.79,WNW,284,10.0,12.0,32,0.00,FEW,FEW,0.01,WeatherDisplay:10.37,2013-05-05 21:00:00,
2013-05-05 17:05:00,77.1,45.7,29.79,WNW,295,3.0,10.0,33,0.00,CLR,CLR,0.01,WeatherDisplay:10.37,2013-05-05 21:05:00,
2013-05-05 17:10:00,77.4,46.8,29.79,WNW,299,5.0,12.0,34,0.00,CLR,CLR,0.01,WeatherDisplay:10.37,2013-05-05 21:10:00,
2013-05-05 17:15:00,77.4,46.0,29.79,WNW,290,5.0,9.0,33,0.00,CLR,CLR,0.01,WeatherDisplay:10.37,2013-05-05 21:15:00,
2013-05-05 17:20:00,77.4,46.0,29.79,WNW,295,8.0,12.0,33,0.00,CLR,CLR,0.01,WeatherDisplay:10.37,2013-05-05 21:20:00,
2013-05-05 17:30:00,77.9,47.2,29.79,West,263,5.0,10.0,34,0.00,CLR,CLR,0.01,WeatherDisplay:10.37,2013-05-05 21:30:00,
2013-05-05 17:35:00,77.9,45.7,29.79,West,274,6.0,9.0,32,0.00,CLR,CLR,0.01,WeatherDisplay:10.37,2013-05-05 21:35:00,
2013-05-05 17:40:00,78.0,46.6,29.80,West,265,3.0,9.0,33,0.00,CLR,CLR,0.01,WeatherDisplay:10.37,2013-05-05 21:40:00,
2013-05-05 17:45:00,78.3,46.8,29.79,West,261,5.0,9.0,33,0.00,CLR,CLR,0.01,WeatherDisplay:10.37,2013-05-05 21:45:00,
2013-05-05 17:50:00,78.7,47.9,29.79,WNW,302,3.0,6.0,34,0.00,CLR,CLR,0.01,WeatherDisplay:10.37,2013-05-05 21:50:00,
2013-05-05 17:55:00,78.1,46.7,29.80,WNW,289,7.0,10.0,33,0.00,CLR,CLR,0.01,WeatherDisplay:10.37,2013-05-05 21:55:00,
2013-05-05 18:05:00,77.9,47.3,29.79,WNW,289,3.0,8.0,34,0.00,CLR,CLR,0.01,WeatherDisplay:10.37,2013-05-05 22:05:00,
2013-05-05 18:10:00,77.7,46.3,29.79,WNW,290,6.0,12.0,33,0.00,CLR,CLR,0.01,WeatherDisplay:10.37,2013-05-05 22:10:00,
2013-05-05 18:15:00,77.6,47.0,29.79,WNW,299,6.0,9.0,34,0.00,CLR,CLR,0.01,WeatherDisplay:10.37,2013-05-05 22:15:00,
2013-05-05 18:20:00,77.4,46.8,29.79,NW,312,3.0,8.0,34,0.00,CLR,CLR,0.01,WeatherDisplay:10.37,2013-05-05 22:20:00,
2013-05-05 18:25:00,78.0,48.1,29.79,NW,310,2.0,6.0,35,0.00,CLR,CLR,0.01,WeatherDisplay:10.37,2013-05-05 22:25:00,
2013-05-05 18:30:00,78.5,47.8,29.79,WNW,298,2.0,7.0,34,0.00,CLR,CLR,0.01,WeatherDisplay:10.37,2013-05-05 22:30:00,
2013-05-05 18:40:00,77.8,47.2,29.80,NW,304,8.0,8.0,34,0.00,CLR,CLR,0.01,WeatherDisplay:10.37,2013-05-05 22:40:00,
2013-05-05 18:45:00,77.2,47.4,29.80,WNW,299,5.0,10.0,35,0.00,CLR,CLR,0.01,WeatherDisplay:10.37,2013-05-05 22:45:00,
2013-05-05 18:50:00,77.2,47.4,29.80,WNW,297,5.0,8.0,35,0.00,CLR,CLR,0.01,WeatherDisplay:10.37,2013-05-05 22:50:00,
2013-05-05 18:55:00,77.4,48.3,29.80,WNW,302,3.0,6.0,36,0.00,CLR,CLR,0.01,WeatherDisplay:10.37,2013-05-05 22:55:00,
2013-05-05 19:00:00,77.2,49.6,29.80,WNW,283,9.0,10.0,38,0.00,CLR,CLR,0.01,WeatherDisplay:10.37,2013-05-05 23:00:00,
2013-05-05 19:05:00,76.6,50.5,29.80,West,275,8.0,9.0,40,0.00,CLR,CLR,0.01,WeatherDisplay:10.37,2013-05-05 23:05:00,
2013-05-05 19:10:00,76.1,50.7,29.80,West,274,3.0,12.0,41,0.00,CLR,CLR,0.01,WeatherDisplay:10.37,2013-05-05 23:10:00,
2013-05-05 19:15:00,76.0,50.6,29.81,WNW,286,9.0,12.0,41,0.00,CLR,CLR,0.01,WeatherDisplay:10.37,2013-05-05 23:15:00,
2013-05-05 19:20:00,75.5,49.5,29.81,WNW,285,7.0,12.0,40,0.00,CLR,CLR,0.01,WeatherDisplay:10.37,2013-05-05 23:20:00,
2013-05-05 19:25:00,75.2,49.9,29.81,West,277,6.0,9.0,41,0.00,CLR,CLR,0.01,WeatherDisplay:10.37,2013-05-05 23:25:00,
2013-05-05 19:30:00,74.8,49.6,29.81,WNW,282,8.0,10.0,41,0.00,CLR,CLR,0.01,WeatherDisplay:10.37,2013-05-05 23:30:00,
2013-05-05 19:35:00,74.5,49.3,29.81,WNW,286,6.0,10.0,41,0.00,CLR,CLR,0.01,WeatherDisplay:10.37,2013-05-05 23:35:00,
2013-05-05 19:40:00,74.3,49.1,29.82,West,279,8.0,10.0,41,0.00,CLR,CLR,0.01,WeatherDisplay:10.37,2013-05-05 23:40:00,
2013-05-05 19:50:00,73.4,48.9,29.82,West,279,6.0,8.0,42,0.00,CLR,CLR,0.01,WeatherDisplay:10.37,2013-05-05 23:50:00,
2013-05-05 20:00:00,72.5,48.1,29.82,West,265,7.0,10.0,42,0.00,CLR,CLR,0.01,WeatherDisplay:10.37,2013-05-06 00:00:00,
2013-05-05 20:10:00,71.9,48.2,29.83,West,265,5.0,8.0,43,0.00,CLR,CLR,0.01,WeatherDisplay:10.37,2013-05-06 00:10:00,
2013-05-05 20:15:00,71.6,48.5,29.83,West,263,2.0,8.0,44,0.00,CLR,CLR,0.01,WeatherDisplay:10.37,2013-05-06 00:15:00,
2013-05-05 20:25:00,71.2,47.0,29.83,West,271,5.0,10.0,42,0.00,CLR,CLR,0.01,WeatherDisplay:10.37,2013-05-06 00:25:00,
2013-05-05 20:35:00,70.9,47.3,29.84,West,275,3.0,5.0,43,0.00,CLR,CLR,0.01,WeatherDisplay:10.37,2013-05-06 00:35:00,
2013-05-05 20:40:00,70.5,47.5,29.84,West,271,6.0,8.0,44,0.00,CLR,CLR,0.01,WeatherDisplay:10.37,2013-05-06 00:40:00,
2013-05-05 20:45:00,70.3,48.0,29.84,West,278,3.0,7.0,45,0.00,CLR,CLR,0.01,WeatherDisplay:10.37,2013-05-06 00:45:00,
2013-05-05 20:50:00,70.2,48.4,29.84,West,276,5.0,9.0,46,0.00,CLR,CLR,0.01,WeatherDisplay:10.37,2013-05-06 00:50:00,
2013-05-05 21:00:00,69.8,48.7,29.84,West,276,3.0,8.0,47,0.00,CLR,CLR,0.01,WeatherDisplay:10.37,2013-05-06 01:00:00,
2013-05-05 21:05:00,69.6,49.1,29.84,West,270,3.0,8.0,48,0.00,CLR,CLR,0.01,WeatherDisplay:10.37,2013-05-06 01:05:00,
2013-05-05 21:10:00,69.4,49.4,29.84,West,264,3.0,6.0,49,0.00,CLR,CLR,0.01,WeatherDisplay:10.37,2013-05-06 01:10:00,
2013-05-05 21:15:00,69.3,48.7,29.84,WSW,254,2.0,5.0,48,0.00,CLR,CLR,0.01,WeatherDisplay:10.37,2013-05-06 01:15:00,
2013-05-05 21:20:00,69.0,49.0,29.84,WSW,254,2.0,5.0,49,0.00,CLR,CLR,0.01,WeatherDisplay:10.37,2013-05-06 01:20:00,
2013-05-05 21:30:00,68.7,49.3,29.85,West,263,2.0,4.0,50,0.00,CLR,CLR,0.01,WeatherDisplay:10.37,2013-05-06 01:30:00,
2013-05-05 21:35:00,68.4,49.6,29.85,WSW,254,2.0,3.0,51,0.00,CLR,CLR,0.01,WeatherDisplay:10.37,2013-05-06 01:35:00,
2013-05-05 21:45:00,68.2,49.9,29.84,SW,221,2.0,4.0,52,0.00,CLR,CLR,0.01,WeatherDisplay:10.37,2013-05-06 01:45:00,
2013-05-05 21:50:00,68.0,50.2,29.85,WSW,241,1.0,3.0,53,0.00,CLR,CLR,0.01,WeatherDisplay:10.37,2013-05-06 01:50:00,
2013-05-05 21:55:00,67.6,50.3,29.85,WSW,253,2.0,3.0,54,0.00,CLR,CLR,0.01,WeatherDisplay:10.37,2013-05-06 01:55:00,
2013-05-05 22:00:00,67.3,50.1,29.85,WSW,257,3.0,5.0,54,0.00,CLR,CLR,0.01,WeatherDisplay:10.37,2013-05-06 02:00:00,
2013-05-05 22:05:00,67.3,50.6,29.86,West,261,1.0,5.0,55,0.00,CLR,CLR,0.01,WeatherDisplay:10.37,2013-05-06 02:05:00,
2013-05-05 22:10:00,67.1,50.9,29.86,WSW,256,2.0,3.0,56,0.00,CLR,CLR,0.01,WeatherDisplay:10.37,2013-05-06 02:10:00,
2013-05-05 22:15:00,66.9,51.2,29.86,WSW,246,2.0,4.0,57,0.00,CLR,CLR,0.01,WeatherDisplay:10.37,2013-05-06 02:15:00,
2013-05-05 22:20:00,66.6,51.4,29.86,WSW,241,2.0,3.0,58,0.00,CLR,CLR,0.01,WeatherDisplay:10.37,2013-05-06 02:20:00,
2013-05-05 22:25:00,66.6,51.3,29.86,WSW,249,2.0,3.0,58,0.00,CLR,CLR,0.01,WeatherDisplay:10.37,2013-05-06 02:25:00,
2013-05-05 22:30:00,66.4,51.6,29.87,WSW,250,1.0,2.0,59,0.00,CLR,CLR,0.01,WeatherDisplay:10.37,2013-05-06 02:30:00,
2013-05-05 22:35:00,66.2,51.4,29.87,WSW,247,1.0,2.0,59,0.00,CLR,CLR,0.01,WeatherDisplay:10.37,2013-05-06 02:35:00,
2013-05-05 22:40:00,66.0,51.7,29.87,WSW,247,1.0,2.0,60,0.00,CLR,CLR,0.01,WeatherDisplay:10.37,2013-05-06 02:40:00,
2013-05-05 22:45:00,65.9,52.1,29.87,WSW,248,3.0,5.0,61,0.00,CLR,CLR,0.01,WeatherDisplay:10.37,2013-05-06 02:45:00,
2013-05-05 22:55:00,65.8,52.5,29.87,WSW,256,1.0,4.0,62,0.00,CLR,CLR,0.01,WeatherDisplay:10.37,2013-05-06 02:55:00,
2013-05-05 23:00:00,65.8,52.5,29.88,WSW,252,1.0,3.0,62,0.00,CLR,CLR,0.01,WeatherDisplay:10.37,2013-05-06 03:00:00,
2013-05-05 23:05:00,65.8,52.9,29.88,WSW,255,2.0,5.0,63,0.00,FEW,FEW,0.01,WeatherDisplay:10.37,2013-05-06 03:05:00,
2013-05-05 23:10:00,65.8,53.3,29.87,WSW,255,2.0,4.0,64,0.00,FEW,FEW,0.01,WeatherDisplay:10.37,2013-05-06 03:10:00,
2013-05-05 23:15:00,65.8,53.3,29.87,WSW,250,3.0,6.0,64,0.00,FEW,FEW,0.01,WeatherDisplay:10.37,2013-05-06 03:15:00,
2013-05-05 23:20:00,65.8,53.3,29.87,WSW,251,2.0,5.0,64,0.00,FEW,FEW,0.01,WeatherDisplay:10.37,2013-05-06 03:20:00,
2013-05-05 23:25:00,65.8,53.7,29.88,WSW,253,2.0,5.0,65,0.00,FEW,FEW,0.01,WeatherDisplay:10.37,2013-05-06 03:25:00,
2013-05-05 23:30:00,65.5,53.4,29.87,WSW,251,1.0,2.0,65,0.00,FEW,FEW,0.01,WeatherDisplay:10.37,2013-05-06 03:30:00,
2013-05-05 23:35:00,65.2,53.5,29.88,WSW,249,3.0,5.0,66,0.00,FEW,FEW,0.01,WeatherDisplay:10.37,2013-05-06 03:35:00,
2013-05-05 23:40:00,65.1,53.5,29.88,WSW,258,2.0,5.0,66,0.00,FEW,FEW,0.01,WeatherDisplay:10.37,2013-05-06 03:40:00,
2013-05-05 23:45:00,65.1,53.9,29.88,WSW,250,2.0,5.0,67,0.00,FEW,FEW,0.01,WeatherDisplay:10.37,2013-05-06 03:45:00,
2013-05-05 23:50:00,64.9,53.7,29.88,WSW,240,2.0,2.0,67,0.00,FEW,FEW,0.01,WeatherDisplay:10.37,2013-05-06 03:50:00,